| time (UTC) | temp F | wind direction | speed MPH | gust MPH | rain 1hr in | rain 24hr in | rain mn in | humidity % | barometer mb |
| 20260507184535 | 69 | 250 | 3.0 | 9.0 | 0.00 | 0.01 | 0.00 | 73 | 1015.0 |
| 20260507183039 | 71 | 311 | 2.0 | 8.0 | 0.00 | 0.01 | 0.00 | 71 | 1015.1 |
| 20260507181537 | 70 | 297 | 3.0 | 9.0 | 0.00 | 0.01 | 0.00 | 71 | 1015.1 |
| 20260507180040 | 70 | 0 | 2.0 | 8.0 | 0.00 | 0.01 | 0.00 | 72 | 1015.2 |
| 20260507174556 | 69 | 277 | 2.0 | 8.0 | 0.00 | 0.01 | 0.00 | 73 | 1015.2 |
| 20260507173044 | 69 | 287 | 1.0 | 6.0 | 0.00 | 0.01 | 0.00 | 76 | 1015.2 |
| 20260507171558 | 68 | 238 | 1.0 | 4.0 | 0.00 | 0.01 | 0.00 | 76 | 1015.3 |
| 20260507170039 | 67 | 233 | 2.0 | 4.0 | 0.00 | 0.01 | 0.00 | 77 | 1015.3 |
| 20260507164539 | 66 | 239 | 1.0 | 2.0 | 0.00 | 0.02 | 0.00 | 80 | 1015.3 |
| 20260507163036 | 64 | 291 | 1.0 | 4.0 | 0.00 | 0.02 | 0.00 | 83 | 1015.5 |
| 20260507161540 | 61 | 0 | 0.0 | 3.0 | 0.00 | 0.02 | 0.00 | 86 | 1015.6 |
| 20260507160107 | 61 | 0 | 0.0 | 4.0 | 0.00 | 0.02 | 0.00 | 87 | 1015.6 |
| 20260507154539 | 61 | 5 | 1.0 | 4.0 | 0.00 | 0.02 | 0.00 | 88 | 1015.8 |
| 20260507153039 | 60 | 0 | 0.0 | 3.0 | 0.00 | 0.02 | 0.00 | 90 | 1015.7 |
| 20260507151539 | 59 | 106 | 0.0 | 3.0 | 0.00 | 0.02 | 0.00 | 92 | 1015.7 |
| 20260507150043 | 59 | 0 | 0.0 | 2.0 | 0.00 | 0.02 | 0.00 | 93 | 1015.6 |
| 20260507144540 | 59 | 0 | 0.0 | 2.0 | 0.00 | 0.02 | 0.00 | 94 | 1015.6 |
| 20260507143037 | 58 | 101 | 1.0 | 4.0 | 0.00 | 0.02 | 0.00 | 95 | 1015.4 |
| 20260507141537 | 58 | 90 | 1.0 | 3.0 | 0.00 | 0.02 | 0.00 | 96 | 1015.3 |
| 20260507140047 | 57 | 0 | 0.0 | 2.0 | 0.00 | 0.02 | 0.00 | 96 | 1015.2 |
| 20260507134539 | 57 | 0 | 0.0 | 4.0 | 0.00 | 0.02 | 0.00 | 96 | 1015.2 |
| 20260507133037 | 56 | 95 | 1.0 | 3.0 | 0.00 | 0.02 | 0.00 | 96 | 1015.1 |
| 20260507131607 | 55 | 97 | 1.0 | 3.0 | 0.00 | 0.02 | 0.00 | 96 | 1015.1 |
| 20260507130039 | 54 | 97 | 0.0 | 0.0 | 0.00 | 0.02 | 0.00 | 96 | 1015.0 |
| 20260507124552 | 53 | 97 | 1.0 | 2.0 | 0.00 | 0.03 | 0.00 | 96 | 1014.9 |
| 20260507123045 | 53 | 0 | 1.0 | 3.0 | 0.00 | 0.03 | 0.00 | 96 | 1014.8 |
| 20260507121541 | 53 | 96 | 0.0 | 2.0 | 0.00 | 0.03 | 0.00 | 95 | 1014.8 |
| 20260507120041 | 53 | 97 | 1.0 | 3.0 | 0.00 | 0.03 | 0.00 | 96 | 1014.7 |
| 20260507114534 | 53 | 97 | 1.0 | 2.0 | 0.00 | 0.03 | 0.00 | 95 | 1014.7 |
| 20260507113103 | 53 | 96 | 1.0 | 2.0 | 0.00 | 0.03 | 0.00 | 95 | 1014.7 |
| 20260507111539 | 53 | 96 | 1.0 | 2.0 | 0.00 | 0.03 | 0.00 | 95 | 1014.9 |
| 20260507110041 | 54 | 0 | 1.0 | 2.0 | 0.00 | 0.03 | 0.00 | 95 | 1014.9 |
| 20260507104546 | 54 | 97 | 1.0 | 3.0 | 0.00 | 0.03 | 0.00 | 95 | 1015.0 |
| 20260507103043 | 53 | 97 | 0.0 | 2.0 | 0.00 | 0.03 | 0.00 | 95 | 1015.1 |
| 20260507101542 | 54 | 97 | 2.0 | 3.0 | 0.00 | 0.03 | 0.00 | 95 | 1015.1 |
| 20260507100052 | 54 | 97 | 1.0 | 3.0 | 0.00 | 0.03 | 0.00 | 95 | 1015.2 |
| 20260507094541 | 54 | 97 | 1.0 | 3.0 | 0.00 | 0.03 | 0.00 | 95 | 1015.2 |
| 20260507093041 | 55 | 97 | 1.0 | 2.0 | 0.00 | 0.03 | 0.00 | 95 | 1015.4 |
| 20260507091548 | 55 | 97 | 1.0 | 2.0 | 0.00 | 0.03 | 0.00 | 95 | 1015.4 |
| 20260507090042 | 54 | 0 | 1.0 | 2.0 | 0.00 | 0.03 | 0.00 | 95 | 1015.5 |
| 20260507084551 | 54 | 96 | 2.0 | 3.0 | 0.00 | 0.03 | 0.00 | 95 | 1015.6 |
| 20260507083039 | 54 | 101 | 1.0 | 3.0 | 0.00 | 0.03 | 0.00 | 94 | 1015.7 |
| 20260507081539 | 54 | 91 | 1.0 | 3.0 | 0.00 | 0.03 | 0.00 | 94 | 1015.6 |
| 20260507080035 | 54 | 91 | 1.0 | 3.0 | 0.00 | 0.03 | 0.00 | 94 | 1015.9 |
| 20260507074545 | 54 | 91 | 1.0 | 3.0 | 0.00 | 0.04 | 0.00 | 94 | 1016.0 |
| 20260507073040 | 55 | 83 | 1.0 | 3.0 | 0.00 | 0.04 | 0.00 | 94 | 1016.0 |
| 20260507071544 | 55 | 83 | 2.0 | 3.0 | 0.00 | 0.04 | 0.00 | 94 | 1016.2 |
| 20260507070054 | 55 | 83 | 1.0 | 3.0 | 0.00 | 0.04 | 0.00 | 93 | 1016.2 |
| 20260507064544 | 55 | 83 | 1.0 | 2.0 | 0.00 | 0.04 | 0.04 | 94 | 1016.2 |
| 20260507063041 | 55 | 70 | 1.0 | 2.0 | 0.00 | 0.04 | 0.04 | 93 | 1016.3 |
| 20260507061542 | 55 | 70 | 1.0 | 2.0 | 0.00 | 0.04 | 0.04 | 93 | 1016.2 |
| 20260507060043 | 56 | 70 | 1.0 | 2.0 | 0.00 | 0.04 | 0.04 | 93 | 1016.3 |
| 20260507054542 | 56 | 332 | 1.0 | 2.0 | 0.00 | 0.04 | 0.04 | 92 | 1016.3 |
| 20260507053038 | 56 | 332 | 0.0 | 2.0 | 0.00 | 0.04 | 0.04 | 92 | 1016.3 |
| 20260507051541 | 57 | 0 | 0.0 | 0.0 | 0.00 | 0.04 | 0.04 | 92 | 1016.3 |
| 20260507044550 | 57 | 0 | 0.0 | 0.0 | 0.00 | 0.05 | 0.04 | 91 | 1016.1 |
| 20260507043037 | 58 | 0 | 0.0 | 0.0 | 0.00 | 0.05 | 0.04 | 91 | 1016.1 |
| 20260507041544 | 58 | 0 | 0.0 | 0.0 | 0.00 | 0.05 | 0.04 | 90 | 1016.1 |
| 20260507040047 | 58 | 0 | 0.0 | 0.0 | 0.00 | 0.05 | 0.04 | 89 | 1016.0 |
| 20260507034542 | 59 | 0 | 0.0 | 0.0 | 0.00 | 0.05 | 0.04 | 88 | 1015.8 |
| 20260507033045 | 60 | 0 | 0.0 | 1.0 | 0.00 | 0.05 | 0.04 | 88 | 1015.8 |
| 20260507031539 | 60 | 0 | 0.0 | 1.0 | 0.00 | 0.05 | 0.04 | 87 | 1015.7 |
| 20260507030042 | 61 | 0 | 0.0 | 2.0 | 0.00 | 0.05 | 0.04 | 85 | 1015.5 |
| 20260507024543 | 62 | 0 | 0.0 | 4.0 | 0.00 | 0.05 | 0.04 | 84 | 1015.3 |
| 20260507023040 | 62 | 0 | 0.0 | 3.0 | 0.00 | 0.05 | 0.04 | 82 | 1015.3 |
| 20260507021553 | 63 | 244 | 0.0 | 4.0 | 0.00 | 0.05 | 0.04 | 80 | 1015.2 |
| 20260507020039 | 64 | 279 | 1.0 | 7.0 | 0.00 | 0.05 | 0.04 | 77 | 1015.2 |
| 20260507014536 | 65 | 0 | 0.0 | 4.0 | 0.00 | 0.06 | 0.04 | 75 | 1015.1 |
| 20260507013039 | 65 | 297 | 2.0 | 5.0 | 0.00 | 0.06 | 0.04 | 71 | 1015.1 |
| 20260507011540 | 66 | 306 | 2.0 | 6.0 | 0.00 | 0.06 | 0.04 | 70 | 1015.1 |
| 20260507010044 | 66 | 278 | 0.0 | 8.0 | 0.00 | 0.06 | 0.04 | 71 | 1015.1 |
| 20260507004539 | 67 | 0 | 1.0 | 8.0 | 0.00 | 0.06 | 0.04 | 72 | 1015.1 |
| 20260507003040 | 68 | 254 | 2.0 | 8.0 | 0.00 | 0.06 | 0.04 | 72 | 1015.1 |
| 20260507001540 | 68 | 341 | 2.0 | 8.0 | 0.00 | 0.06 | 0.04 | 71 | 1015.0 |
| 20260507000040 | 69 | 238 | 1.0 | 7.0 | 0.00 | 0.06 | 0.04 | 68 | 1014.9 |
| 20260506234549 | 69 | 239 | 3.0 | 8.0 | 0.01 | 0.07 | 0.04 | 67 | 1014.8 |
| 20260506233041 | 70 | 239 | 2.0 | 9.0 | 0.01 | 0.07 | 0.04 | 65 | 1014.7 |
| 20260506231539 | 70 | 276 | 2.0 | 8.0 | 0.01 | 0.07 | 0.04 | 66 | 1014.9 |
| 20260506230037 | 69 | 263 | 3.0 | 11.0 | 0.01 | 0.07 | 0.04 | 67 | 1015.0 |
| 20260506224547 | 70 | 0 | 1.0 | 7.0 | 0.00 | 0.07 | 0.03 | 68 | 1015.1 |
| 20260506223040 | 70 | 120 | 2.0 | 9.0 | 0.00 | 0.07 | 0.03 | 66 | 1015.3 |
| 20260506221536 | 71 | 0 | 1.0 | 7.0 | 0.00 | 0.07 | 0.03 | 67 | 1015.3 |
| 20260506220042 | 70 | 230 | 5.0 | 13.0 | 0.00 | 0.07 | 0.03 | 66 | 1015.4 |
| 20260506214542 | 70 | 226 | 2.0 | 11.0 | 0.00 | 0.08 | 0.03 | 67 | 1015.6 |
| 20260506213039 | 71 | 236 | 2.0 | 14.0 | 0.00 | 0.08 | 0.03 | 64 | 1015.7 |
| 20260506211538 | 71 | 281 | 2.0 | 8.0 | 0.00 | 0.08 | 0.03 | 64 | 1015.8 |
| 20260506210043 | 71 | 241 | 4.0 | 10.0 | 0.00 | 0.08 | 0.03 | 66 | 1015.9 |
| 20260506204551 | 69 | 258 | 2.0 | 10.0 | 0.00 | 0.09 | 0.03 | 66 | 1015.9 |
| 20260506203040 | 70 | 252 | 4.0 | 12.0 | 0.00 | 0.09 | 0.03 | 64 | 1016.2 |
| 20260506201541 | 69 | 263 | 3.0 | 12.0 | 0.00 | 0.09 | 0.03 | 69 | 1016.2 |
| 20260506200046 | 70 | 259 | 3.0 | 10.0 | 0.00 | 0.09 | 0.03 | 66 | 1016.2 |
| 20260506194548 | 69 | 300 | 6.0 | 14.0 | 0.00 | 0.10 | 0.03 | 65 | 1016.4 |
| 20260506193039 | 70 | 257 | 3.0 | 10.0 | 0.00 | 0.10 | 0.03 | 65 | 1016.5 |
| 20260506191539 | 70 | 271 | 2.0 | 10.0 | 0.00 | 0.10 | 0.03 | 66 | 1016.6 |
| 20260506190040 | 71 | 280 | 3.0 | 10.0 | 0.00 | 0.10 | 0.03 | 65 | 1016.5 |